Powrót do katalogu

STARLINK-37348

AktywnyŁącznośćSSO
NORAD 68737·PAYLOAD·🇺🇸 United States

Wystrzelony Apr 15, 2026 z Vandenberg Space Force Base

Loading…

Następne Przeloty (najbliższe 24 godziny)

TLE

ŚwieżeSource: CelesTrak SupGP

Epoka: Sep 15, 2026, 03:30 UTC

1 68737C 26082K   26258.14631944 -.00002848  00000+0 -88390-4 0  2587
2 68737  97.2849 120.3508 0002093  95.0174 265.3146 15.33446995    18

Śledź STARLINK-37348 w czasie rzeczywistym z AllMySat

Download on the App Store